KD4EED Weather Reports


time (UTC)temp
F
wind
direction
speed
knots
gust
knots
rain 1hr
in
rain 24hr
in
rain mn
in
humidity
%
barometer
mb
20260507094220 55 323 1.7 1.7 0.00 0.00 0.00 91 1014.0
20260507093717 55 355 0.0 1.7 0.00 0.00 0.00 91 1014.2
20260507093216 55 341 0.9 1.7 0.00 0.00 0.00 90 1014.2
20260507092713 56 332 0.9 1.7 0.00 0.00 0.00 90 1014.2
20260507092209 56 340 0.9 1.7 0.00 0.00 0.00 90 1014.3
20260507091705 56 357 0.9 1.7 0.00 0.00 0.00 90 1014.2
20260507091202 56 354 0.9 1.7 0.00 0.00 0.00 91 1014.4
20260507090657 56 325 0.0 1.7 0.00 0.00 0.00 91 1014.2
20260507090154 56 350 0.9 1.7 0.00 0.00 0.00 91 1014.3
20260507085652 56 330 0.0 1.7 0.00 0.00 0.00 91 1014.3
20260507085148 56 332 0.0 1.7 0.00 0.00 0.00 91 1014.5
20260507084645 56 333 0.9 0.9 0.00 0.00 0.00 91 1014.6
20260507084142 56 339 0.9 1.7 0.00 0.00 0.00 91 1014.5
20260507083639 56 331 0.9 1.7 0.00 0.00 0.00 91 1014.6
20260507083135 56 356 0.0 1.7 0.00 0.00 0.00 91 1014.7
20260507082631 56 341 0.9 1.7 0.00 0.00 0.00 91 1014.7
20260507082128 56 351 0.9 1.7 0.00 0.00 0.00 91 1014.6
20260507081625 56 347 0.9 1.7 0.00 0.00 0.00 91 1014.7
20260507081121 56 333 1.7 1.7 0.00 0.00 0.00 90 1014.7
20260507080617 57 327 0.0 1.7 0.00 0.00 0.00 90 1014.8
20260507080115 57 328 1.7 1.7 0.00 0.00 0.00 90 1014.6
20260507075614 57 347 0.9 1.7 0.00 0.00 0.00 91 1014.6
20260507075111 57 329 0.0 0.9 0.00 0.00 0.00 91 1014.8
20260507074608 57 330 0.9 1.7 0.00 0.00 0.00 90 1014.5
20260507074106 57 332 0.9 1.7 0.00 0.00 0.00 90 1014.9
20260507073602 57 342 0.0 1.7 0.00 0.00 0.00 91 1014.8
20260507073058 57 339 0.9 1.7 0.00 0.00 0.00 90 1014.7
20260507072556 57 334 0.9 1.7 0.00 0.00 0.00 91 1014.8
20260507072053 57 9 0.0 1.7 0.00 0.00 0.00 90 1014.9
20260507071551 57 8 0.0 1.7 0.00 0.00 0.00 90 1015.0
20260507071047 57 1 0.9 1.7 0.00 0.00 0.00 89 1014.8
20260507070544 57 341 0.0 1.7 0.00 0.00 0.00 89 1014.9
20260507070041 57 334 0.0 1.7 0.00 0.00 0.00 90 1014.9
20260507065537 58 339 0.0 1.7 0.00 0.00 0.00 90 1014.8
20260507065034 58 0 0.9 1.7 0.00 0.00 0.00 90 1015.0
20260507064532 58 324 1.7 1.7 0.00 0.00 0.00 89 1015.0
20260507064031 58 346 0.9 1.7 0.00 0.00 0.00 89 1014.9
20260507063527 58 2 0.9 1.7 0.00 0.00 0.00 88 1015.1
20260507063025 58 351 0.9 1.7 0.00 0.00 0.00 88 1015.1
20260507062521 58 331 0.9 1.7 0.00 0.00 0.00 88 1015.0
20260507062019 58 321 0.9 1.7 0.00 0.00 0.00 88 1015.2
20260507061517 58 327 0.9 1.7 0.00 0.00 0.00 88 1014.9
20260507061015 58 339 0.9 1.7 0.00 0.00 0.00 87 1015.1
20260507060512 58 327 0.9 1.7 0.00 0.00 0.00 87 1015.1
20260507060009 58 315 1.7 1.7 0.00 0.00 0.00 87 1014.9
20260507055503 58 318 0.9 1.7 0.00 0.00 0.00 87 1014.9
20260507055000 59 337 0.9 1.7 0.00 0.00 0.00 87 1015.1
20260507054456 59 333 0.0 1.7 0.00 0.00 0.00 86 1015.0
20260507053954 59 326 0.0 1.7 0.00 0.00 0.00 86 1015.1
20260507053451 59 335 0.9 1.7 0.00 0.00 0.00 86 1015.0
20260507052949 59 342 0.9 1.7 0.00 0.00 0.00 86 1014.9
20260507052447 59 336 0.9 1.7 0.00 0.00 0.00 86 1015.0
20260507051943 59 340 0.9 1.7 0.00 0.00 0.00 86 1015.0
20260507051441 59 348 0.9 1.7 0.00 0.00 0.00 86 1015.1
20260507050938 59 327 1.7 1.7 0.00 0.00 0.00 86 1014.8
20260507050434 59 329 0.9 1.7 0.00 0.00 0.00 85 1014.9
20260507045932 59 335 0.9 1.7 0.00 0.00 0.00 85 1015.1
20260507045428 60 332 0.0 1.7 0.00 0.00 0.00 85 1014.7
20260507044925 60 343 0.9 1.7 0.00 0.00 0.00 85 1014.9
20260507044422 60 338 0.9 1.7 0.00 0.00 0.00 84 1014.7
20260507043918 60 346 0.9 1.7 0.00 0.00 0.00 85 1014.8
20260507043414 60 348 0.9 1.7 0.00 0.00 0.00 84 1014.6
20260507042911 60 349 0.0 0.9 0.00 0.00 0.00 83 1014.7
20260507042407 60 344 1.7 1.7 0.00 0.00 0.00 83 1014.6
20260507041903 60 327 0.9 1.7 0.00 0.00 0.00 83 1014.7
20260507041400 60 343 0.9 1.7 0.00 0.00 0.00 83 1014.5
20260507040857 60 340 0.9 1.7 0.00 0.00 0.00 82 1014.6
20260507040353 60 331 0.9 1.7 0.00 0.00 0.00 82 1014.6
20260507035849 61 4 0.9 1.7 0.00 0.00 0.00 82 1014.5
20260507035345 61 346 0.9 1.7 0.00 0.00 0.00 82 1014.5
20260507034843 61 332 0.9 1.7 0.00 0.00 0.00 81 1014.3
20260507034339 61 344 0.9 1.7 0.00 0.00 0.00 81 1014.3
20260507033837 61 336 0.9 1.7 0.00 0.00 0.00 81 1014.5
20260507033335 61 337 0.9 1.7 0.00 0.00 0.00 81 1014.1
20260507032832 61 327 1.7 2.6 0.00 0.00 0.00 80 1014.2
20260507032328 61 312 0.0 1.7 0.00 0.00 0.00 80 1014.2
20260507031825 61 325 0.9 1.7 0.00 0.00 0.00 80 1014.1
20260507031322 61 320 1.7 1.7 0.00 0.00 0.00 80 1014.0
20260507030818 61 1 0.9 1.7 0.00 0.00 0.00 79 1014.1
20260507030316 62 313 1.7 1.7 0.00 0.00 0.00 79 1014.1
20260507025812 62 16 0.9 1.7 0.00 0.00 0.00 78 1014.0
20260507025310 62 313 0.9 1.7 0.00 0.00 0.00 77 1013.9
20260507024808 62 15 0.0 2.6 0.00 0.00 0.00 75 1013.8
20260507024304 63 298 1.7 2.6 0.00 0.00 0.00 74 1013.9
20260507023800 63 318 0.9 3.5 0.00 0.00 0.00 72 1013.7
20260507023257 63 339 1.7 2.6 0.00 0.00 0.00 71 1013.7
20260507022754 64 27 1.7 1.7 0.00 0.00 0.00 69 1013.8
20260507022251 64 300 1.7 3.5 0.00 0.00 0.00 68 1013.9
20260507021747 64 31 1.7 3.5 0.00 0.00 0.00 67 1013.6
20260507021242 64 313 1.7 3.5 0.00 0.00 0.00 67 1013.7
20260507020741 64 3 0.9 3.5 0.00 0.00 0.00 65 1013.5
20260507020237 65 315 0.9 1.7 0.00 0.00 0.00 65 1013.5
20260507015735 65 28 1.7 2.6 0.00 0.00 0.00 65 1013.6
20260507015232 66 331 1.7 3.5 0.00 0.00 0.00 65 1013.5
20260507014728 66 5 1.7 2.6 0.00 0.00 0.00 64 1013.5
20260507014225 67 17 0.0 4.3 0.00 0.00 0.00 62 1013.4
20260507013721 67 0 1.7 2.6 0.00 0.00 0.00 62 1013.5
20260507013219 68 343 1.7 3.5 0.00 0.00 0.00 61 1013.5
20260507012716 68 359 0.9 3.5 0.00 0.00 0.00 60 1013.6
20260507012217 68 343 1.7 3.5 0.00 0.00 0.00 60 1013.4
20260507011715 69 350 0.9 2.6 0.00 0.00 0.00 59 1013.5
20260507011211 69 298 0.9 2.6 0.00 0.00 0.00 59 1013.5
20260507010710 69 310 1.7 4.3 0.00 0.00 0.00 60 1013.3
20260507010207 70 309 0.9 2.6 0.00 0.00 0.00 58 1013.4
20260507005705 70 269 1.7 3.5 0.00 0.00 0.00 58 1013.4
20260507005200 71 3 0.9 3.5 0.00 0.00 0.00 57 1013.4
20260507004657 71 17 1.7 2.6 0.00 0.00 0.00 57 1013.4
20260507004155 71 340 0.9 4.3 0.00 0.00 0.00 57 1013.3
20260507003651 71 295 3.5 3.5 0.00 0.00 0.00 58 1013.5
20260507003151 71 311 0.9 3.5 0.00 0.00 0.00 56 1013.4
20260507002648 72 349 1.7 6.1 0.00 0.00 0.00 55 1013.5
20260507002144 72 349 0.9 2.6 0.00 0.00 0.00 56 1013.5
20260507001641 71 13 1.7 3.5 0.00 0.00 0.00 56 1013.6
20260507001138 72 16 0.0 3.5 0.00 0.00 0.00 54 1013.5
20260507000634 72 274 2.6 6.1 0.00 0.00 0.00 54 1013.4
20260507000130 72 307 1.7 2.6 0.00 0.00 0.00 55 1013.4
20260506235628 72 16 1.7 3.5 0.00 0.00 0.00 54 1013.4
20260506235127 72 287 1.7 4.3 0.00 0.00 0.00 52 1013.4
20260506234625 73 23 2.6 3.5 0.00 0.00 0.00 51 1013.4
20260506234122 73 3 1.7 3.5 0.00 0.00 0.00 49 1013.4
20260506233619 73 2 0.9 3.5 0.00 0.00 0.00 50 1013.3
20260506233116 73 3 2.6 3.5 0.00 0.00 0.00 49 1013.5
20260506232612 74 9 1.7 3.5 0.00 0.00 0.00 49 1013.5
20260506232107 75 331 1.7 3.5 0.00 0.00 0.00 49 1013.4
20260506231605 74 319 1.7 2.6 0.00 0.00 0.00 50 1013.6
20260506231103 74 317 1.7 3.5 0.00 0.00 0.00 48 1013.4
20260506230559 74 335 2.6 2.6 0.00 0.00 0.00 48 1013.5
20260506230057 74 358 0.9 2.6 0.00 0.00 0.00 50 1013.5
20260506225553 73 2 1.7 2.6 0.00 0.00 0.00 49 1013.6
20260506225050 74 16 1.7 4.3 0.00 0.00 0.00 50 1013.5
20260506224547 73 312 0.9 3.5 0.00 0.00 0.00 50 1013.6
20260506224043 73 33 4.3 4.3 0.00 0.00 0.00 52 1013.8
20260506223539 73 359 2.6 4.3 0.00 0.00 0.00 51 1014.0
20260506223036 73 349 2.6 3.5 0.00 0.00 0.00 50 1013.8
20260506222533 74 25 1.7 3.5 0.00 0.00 0.00 51 1014.1
20260506222029 74 353 2.6 5.2 0.00 0.00 0.00 50 1014.0
20260506221527 74 353 2.6 3.5 0.00 0.00 0.00 50 1014.1
20260506221025 74 336 1.7 2.6 0.00 0.00 0.00 51 1014.2
20260506220520 74 351 1.7 3.5 0.00 0.00 0.00 51 1014.3
20260506220016 75 283 1.7 3.5 0.00 0.00 0.00 49 1014.3
20260506215513 74 37 2.6 2.6 0.00 0.00 0.00 50 1014.3
20260506215009 73 39 2.6 3.5 0.00 0.00 0.00 49 1014.5
20260506214506 73 0 1.7 3.5 0.00 0.00 0.00 51 1014.6
20260506214003 73 280 1.7 4.3 0.00 0.00 0.00 49 1014.5
20260506213501 73 326 2.6 3.5 0.00 0.00 0.00 50 1014.6
20260506212958 73 349 1.7 2.6 0.00 0.00 0.00 50 1014.5
20260506212454 74 285 1.7 4.3 0.00 0.00 0.00 49 1014.6
20260506211949 74 332 1.7 2.6 0.00 0.00 0.00 51 1014.8
20260506211445 74 265 0.9 2.6 0.00 0.00 0.00 49 1014.7
20260506210942 73 356 2.6 3.5 0.00 0.00 0.00 50 1014.8
20260506210439 74 334 1.7 3.5 0.00 0.00 0.00 49 1014.8
20260506205936 74 1 1.7 4.3 0.00 0.00 0.00 48 1014.9
20260506205432 74 315 1.7 4.3 0.00 0.00 0.00 49 1015.0
20260506204928 74 22 2.6 2.6 0.00 0.00 0.00 50 1014.8
20260506204426 74 1 1.7 3.5 0.00 0.00 0.00 49 1014.8
20260506203924 73 4 1.7 2.6 0.00 0.00 0.00 51 1015.0
20260506203420 74 8 2.6 3.5 0.00 0.00 0.00 49 1015.0
20260506202917 73 327 1.7 2.6 0.00 0.00 0.00 52 1015.0
20260506202415 73 15 1.7 2.6 0.00 0.00 0.00 51 1015.1
20260506201911 73 336 1.7 3.5 0.00 0.00 0.00 52 1015.2
20260506201409 73 23 1.7 2.6 0.00 0.00 0.00 53 1015.2
20260506200905 73 279 3.5 3.5 0.00 0.00 0.00 51 1015.2
20260506200401 74 346 0.9 3.5 0.00 0.00 0.00 52 1015.4
20260506195857 74 328 1.7 2.6 0.00 0.00 0.00 52 1015.3
20260506195355 74 58 1.7 2.6 0.00 0.00 0.00 50 1015.3
20260506194851 73 348 1.7 2.6 0.00 0.00 0.00 52 1015.3
20260506194348 72 356 1.7 2.6 0.00 0.00 0.00 53 1015.5
20260506193846 72 295 2.6 3.5 0.00 0.00 0.00 53 1015.4
20260506193343 71 333 2.6 3.5 0.00 0.00 0.00 53 1015.7
20260506192839 71 341 1.7 3.5 0.00 0.00 0.00 55 1015.5
20260506192336 71 335 1.7 3.5 0.00 0.00 0.00 54 1015.6
20260506191833 71 296 3.5 4.3 0.00 0.00 0.00 54 1015.7
20260506191329 72 4 1.7 3.5 0.00 0.00 0.00 54 1015.7
20260506190826 72 17 0.9 3.5 0.00 0.00 0.00 53 1015.8
20260506190322 71 349 0.9 2.6 0.00 0.00 0.00 55 1015.8
20260506185820 72 27 1.7 3.5 0.00 0.00 0.00 53 1015.9
20260506185316 71 356 1.7 3.5 0.00 0.00 0.00 55 1015.8
20260506184814 71 294 1.7 3.5 0.00 0.00 0.00 54 1015.8
20260506184311 72 321 1.7 2.6 0.00 0.00 0.00 54 1015.6
20260506183808 72 359 1.7 3.5 0.00 0.00 0.00 53 1016.0
20260506183303 72 338 0.9 2.6 0.00 0.00 0.00 53 1015.9
20260506182800 72 353 1.7 3.5 0.00 0.00 0.00 52 1015.9
20260506182257 72 339 0.9 1.7 0.00 0.00 0.00 53 1015.9
20260506181755 73 355 1.7 2.6 0.00 0.00 0.00 53 1016.0
20260506181253 73 317 0.9 1.7 0.00 0.00 0.00 52 1015.8
20260506180750 73 349 0.9 1.7 0.00 0.00 0.00 52 1015.9
20260506180245 73 9 1.7 2.6 0.00 0.00 0.00 52 1015.9
20260506175742 72 344 0.9 3.5 0.00 0.00 0.00 56 1015.9
20260506175239 72 66 3.5 3.5 0.00 0.00 0.00 55 1016.1
20260506174737 72 292 0.9 2.6 0.00 0.00 0.00 54 1016.0
20260506174233 73 329 1.7 1.7 0.00 0.00 0.00 52 1016.0
20260506173732 73 335 1.7 2.6 0.00 0.00 0.00 52 1015.9
20260506173228 72 318 1.7 1.7 0.00 0.00 0.00 54 1015.9
20260506172724 73 347 0.9 1.7 0.00 0.00 0.00 52 1016.0
20260506172221 72 299 1.7 1.7 0.00 0.00 0.00 53 1016.1
20260506171719 71 298 0.0 1.7 0.00 0.00 0.00 53 1015.9
20260506171216 71 5 0.9 1.7 0.00 0.00 0.00 55 1015.8
20260506170713 71 348 0.9 2.6 0.00 0.00 0.00 56 1015.9
20260506170210 70 311 1.7 1.7 0.00 0.00 0.00 56 1015.9
20260506165709 69 345 0.9 1.7 0.00 0.00 0.00 57 1015.9
20260506165205 68 341 0.9 1.7 0.00 0.00 0.00 60 1016.0
20260506164702 67 0 0.9 1.7 0.00 0.00 0.00 62 1015.7
20260506164159 66 342 0.0 0.9 0.00 0.00 0.00 65 1015.7
20260506163655 64 338 0.0 1.7 0.00 0.00 0.00 68 1015.9
20260506163151 64 10 1.7 1.7 0.00 0.00 0.00 70 1015.9
20260506162647 63 5 1.7 2.6 0.00 0.00 0.00 69 1015.9
20260506162144 62 5 0.9 2.6 0.00 0.00 0.00 70 1016.0
20260506161641 62 329 0.0 1.7 0.00 0.00 0.00 71 1015.9
20260506161138 61 355 0.0 1.7 0.00 0.00 0.00 73 1016.1
20260506160636 61 320 0.9 1.7 0.00 0.00 0.00 75 1016.0
20260506160133 60 315 1.7 1.7 0.00 0.00 0.00 76 1015.9
20260506155632 60 347 0.0 1.7 0.00 0.00 0.00 76 1015.9
20260506155129 59 340 0.9 1.7 0.00 0.00 0.00 82 1016.0
20260506153230 58 352 0.9 1.7 0.00 0.00 0.00 82 1016.1
20260506152727 58 338 0.9 1.7 0.00 0.00 0.00 83 1016.0
20260506152224 58 321 0.0 1.7 0.00 0.00 0.00 83 1016.0
20260506151724 58 327 0.0 1.7 0.00 0.00 0.00 84 1016.1
20260506151219 57 345 0.9 1.7 0.00 0.00 0.00 85 1016.0
20260506150716 57 354 0.0 1.7 0.00 0.00 0.00 85 1016.0
20260506150213 57 346 0.9 1.7 0.00 0.00 0.00 87 1015.9
20260506145710 56 321 0.9 1.7 0.00 0.00 0.00 87 1015.9
20260506145207 56 348 0.0 1.7 0.00 0.00 0.00 88 1016.2
20260506144704 55 9 0.9 1.7 0.00 0.00 0.00 88 1016.1
20260506144201 55 358 0.0 1.7 0.00 0.00 0.00 88 1016.2
20260506143659 55 320 0.9 1.7 0.00 0.00 0.00 89 1016.2
20260506143156 54 345 0.0 1.7 0.00 0.00 0.00 89 1016.1
20260506142655 54 341 0.9 1.7 0.00 0.00 0.00 90 1015.9
20260506142152 53 333 0.0 1.7 0.00 0.00 0.00 90 1016.0
20260506141649 53 344 0.9 1.7 0.00 0.00 0.00 90 1015.7
20260506141148 53 354 0.9 1.7 0.00 0.00 0.00 91 1015.9
20260506140645 53 333 0.9 1.7 0.00 0.00 0.00 91 1015.8
20260506140142 52 332 1.7 1.7 0.00 0.00 0.00 91 1015.8
20260506135639 52 352 0.9 0.9 0.00 0.00 0.00 92 1015.8
20260506135135 52 359 0.9 1.7 0.00 0.00 0.00 92 1015.7
20260506134632 51 358 0.9 1.7 0.00 0.00 0.00 92 1015.9
20260506134127 51 322 1.7 1.7 0.00 0.00 0.00 92 1015.7
20260506133625 51 343 0.9 1.7 0.00 0.00 0.00 92 1015.7
20260506133122 51 340 0.9 1.7 0.00 0.00 0.00 92 1015.6
20260506132619 51 350 0.9 1.7 0.00 0.00 0.00 91 1015.8
20260506132116 51 345 0.9 1.7 0.00 0.00 0.00 92 1015.6
20260506131613 51 339 0.9 1.7 0.00 0.00 0.00 92 1015.5
20260506131110 51 344 0.9 1.7 0.00 0.00 0.00 91 1015.8
20260506130607 51 349 0.9 1.7 0.00 0.00 0.00 91 1015.3
20260506130104 51 344 0.9 1.7 0.00 0.00 0.00 91 1015.4
20260506125603 51 337 0.9 1.7 0.00 0.00 0.00 91 1015.4
20260506125100 51 329 0.9 1.7 0.00 0.00 0.00 90 1015.2
20260506124557 51 350 0.9 1.7 0.00 0.00 0.00 90 1015.4
20260506124055 51 339 0.9 1.7 0.00 0.00 0.00 91 1015.0
20260506123552 51 22 0.0 1.7 0.00 0.00 0.00 91 1015.3
20260506123051 51 345 0.9 1.7 0.00 0.00 0.00 90 1015.1
20260506122547 51 348 0.9 1.7 0.00 0.00 0.00 90 1015.1
20260506122045 51 335 0.9 1.7 0.00 0.00 0.00 90 1015.1
20260506121542 51 350 0.9 1.7 0.00 0.00 0.00 90 1014.9
20260506121038 51 331 1.7 1.7 0.00 0.00 0.00 90 1014.9
20260506120537 51 343 0.9 1.7 0.00 0.00 0.00 90 1014.8
20260506120034 51 347 0.9 1.7 0.00 0.00 0.00 90 1014.9
20260506115532 51 1 1.7 1.7 0.00 0.00 0.00 90 1014.8
20260506115030 51 341 0.9 1.7 0.00 0.00 0.00 89 1014.8
20260506114527 51 337 0.9 1.7 0.00 0.00 0.00 89 1014.8
20260506114026 51 335 0.9 1.7 0.00 0.00 0.00 90 1014.8
20260506113523 51 344 0.9 1.7 0.00 0.00 0.00 90 1014.5
20260506113020 51 346 0.0 1.7 0.00 0.00 0.00 89 1014.6
20260506112516 52 345 0.9 1.7 0.00 0.00 0.00 90 1014.7
20260506112014 52 336 0.0 1.7 0.00 0.00 0.00 89 1014.9
20260506111512 52 0 1.7 1.7 0.00 0.00 0.00 89 1014.7
20260506111009 52 7 0.9 1.7 0.00 0.00 0.00 90 1014.7
20260506110507 52 19 0.9 1.7 0.00 0.00 0.00 90 1014.7
20260506110003 52 9 0.9 1.7 0.00 0.00 0.00 89 1014.9
20260506105459 52 344 0.9 1.7 0.00 0.00 0.00 89 1014.8
20260506104957 52 345 0.9 1.7 0.00 0.00 0.00 89 1014.8
20260506104455 52 341 0.9 1.7 0.00 0.00 0.00 89 1014.8
20260506103953 52 325 0.9 1.7 0.00 0.00 0.00 88 1014.8
20260506103449 52 343 0.9 1.7 0.00 0.00 0.00 89 1014.8
20260506102946 52 354 1.7 1.7 0.00 0.00 0.00 89 1014.8
20260506102444 52 342 0.9 1.7 0.00 0.00 0.00 89 1014.8
20260506101941 52 1 0.9 1.7 0.00 0.00 0.00 89 1014.8
20260506101438 52 1 0.9 0.9 0.00 0.00 0.00 88 1014.9
20260506100935 52 349 0.9 1.7 0.00 0.00 0.00 88 1014.8
20260506100433 53 340 0.9 1.7 0.00 0.00 0.00 88 1014.7
20260506095931 53 332 0.9 1.7 0.00 0.00 0.00 88 1014.9
20260506095429 53 16 0.0 1.7 0.00 0.00 0.00 88 1014.9
20260506094925 53 342 0.9 1.7 0.00 0.00 0.00 88 1014.7
20260506094424 53 348 0.0 1.7 0.00 0.00 0.00 87 1014.9